Tracking 18942 objects as of 17-Jan-2018
HD Live streaming from Space Station
objects crossing your sky now

CZ-2D DEB

Track CZ-2D DEB now!
10-day predictions


NORAD ID: 35272
Int'l Code: 2005-024L
Perigee: 515.1 km
Apogee: 533.0 km
Inclination: 97.5 °
Period: 95.0 minutes
Semi major axis: 6895 km
RCS: 0.0215 m2 (small)
Launch date: July 5, 2005
Source: People's Republic of China (PRC)
Launch site: Jiuquan Satellite Launch Center, China (JSC)

Note: This is SATELLITE DEBRIS
aabbcc
Your satellite tracking list
Your tracking list is empty




NASA's NSSDC Master Catalog

Two Line Element Set (TLE):
1 35272U 05024L   18015.95830060 +.00000389 +00000-0 +23500-4 0  9990
2 35272 097.5321 061.7788 0012954 192.4166 287.9472 15.16337677670182
Source of the keplerian elements: AFSPC